Location: Chi?c?daga
(45.9500°N, 22.8833°E)
Time: 21:54:20
(UTC+00:00)

Daily predictions for brighter satellites

Satellite Brightness Start Highest point End
(mag) Time Altitude Azimuth Time Altitude Azimuth Time Altitude Azimuth
Cosmos 1503 Rocket 4.1 15:08:20 10° S 15:13:30 66° ESE 15:18:40 10° NNE
CZ-4C R/B 3.0 15:07:23 10° NW 15:14:25 80° NE 15:23:08 10° SE
Cosmos 2228 4.1 15:10:21 10° SSW 15:14:26 46° WNW 15:18:34 10° N
Cosmos 1606 Rocket 4.4 15:10:53 10° SSE 15:14:46 31° E 15:18:41 10° NNE
NOSS 2-3 (D) 4.2 15:13:09 10° S 15:16:27 31° ESE 15:19:47 10° ENE
NOSS 2-3 (E) 4.0 15:13:41 10° S 15:17:02 33° ESE 15:20:27 10° NE
BREEZE-M DEB (TANK) 1.4 15:17:07 10° SW 15:18:40 39° SSE 15:20:38 10° ENE
BREEZE M DEB (TANK) 3.9 15:04:10 10° WNW 15:19:42 88° SSW 15:23:42 10° ESE
Thor Agena Rocket 3.7 15:14:47 10° SE 15:19:51 55° ENE 15:24:53 10° N
USA 238 DEB 4.3 15:15:42 10° S 15:21:01 33° ESE 15:26:46 10° NE
USA 238 4.3 15:15:50 10° S 15:21:09 33° ESE 15:26:53 10° NE
UNK 4.2 15:17:42 10° NNE 15:22:03 41° E 15:26:20 10° S
Lacrosse 5 rocket 3.1 15:19:47 10° NW 15:22:08 16° N 15:24:28 10° NNE
Cosmos 1544 Rocket 4.0 15:19:42 10° SSW 15:24:05 68° W 15:28:30 10° N
Cosmos 1354 Rocket 4.2 15:19:21 10° S 15:24:29 58° ESE 15:29:38 10° NNE
Cosmos 1484 Rocket 2.6 15:21:41 10° SSE 15:25:11 85° WSW 15:28:42 10° NNW
Cosmos 1777 Rocket 4.1 15:21:34 10° SSW 15:26:50 83° WNW 15:32:06 10° NNE
Cosmos 1743 2.6 15:26:08 10° NNW 15:29:23 70° W 15:32:35 10° S
IGS 5A 3.3 15:26:43 10° SSE 15:30:40 87° ENE 15:34:40 10° NNW
Gbstr 26 Del rocket 2.8 15:26:36 10° WSW 15:30:52 87° SSE 15:34:27 11° ENE
MOS 1 Rocket 4.1 15:26:27 10° SE 15:30:56 35° ENE 15:35:38 10° N
USA 215 4.1 15:25:19 10° NE 15:31:11 36° N 15:37:03 10° WNW
Cosmos 2151 2.9 15:30:03 10° N 15:34:15 89° WSW 15:38:24 10° S
Cosmos 1900 4.5 15:29:13 10° NW 15:34:17 83° WSW 15:39:13 10° SSE
Cosmos 1726 Rocket 4.1 15:32:58 10° SSE 15:37:17 40° E 15:41:35 10° NNE
BREEZE-M DEB (TANK) 2.8 15:34:41 10° WNW 15:37:33 60° NNE 15:45:43 10° E
IRIDIUM 104 4.3 15:32:39 10° N 15:37:54 75° E 15:43:06 10° S
Meteor 1-20 Rocket 4.2 15:32:30 10° N 15:38:00 87° E 15:43:29 10° S
SMAP 3.0 15:35:43 10° SSE 15:40:19 68° ENE 15:44:58 10° N
Cosmos 2297 Rocket 3.2 15:34:53 10° NW 15:40:23 53° WSW 15:45:51 10° S
GEOS 3 Rocket 3.8 15:38:20 10° NE 15:43:40 62° SE 15:48:58 10° SSW
Landsat 7 3.8 15:39:56 10° SSE 15:44:29 58° ENE 15:49:04 10° N
Cosmos 2084 Rocket 4.5 15:40:40 10° NW 15:44:45 49° WSW 15:48:48 10° SSE
NOSS 7 (H) 4.3 15:42:07 10° NW 15:45:03 77° SW 15:48:21 10° SSE
Cosmos 1602 Rocket 4.0 15:42:08 10° NNW 15:46:28 64° W 15:50:44 10° S
IRIDIUM 114 4.3 15:41:47 10° N 15:47:02 90° ENE 15:52:15 10° S
Cosmos 1805 4.4 15:45:38 10° NNE 15:47:54 17° ENE 15:50:09 10° ESE
YAOGAN 1 3.8 15:46:01 10° ESE 15:49:01 19° ENE 15:52:03 10° NNE
SL-16 R/B 3.0 15:45:12 10° N 15:51:20 63° WNW 15:57:24 10° SSW
Cosmos 990 Rocket 3.9 15:47:05 10° SSW 15:52:12 84° ESE 15:57:23 10° NNE
COSMOS 2455 4.3 15:49:56 10° SE 15:53:36 17° ESE 15:55:26 15° E
Okean 1-7 Rocket 3.7 15:49:33 10° N 15:53:57 79° W 15:58:18 10° S
BREEZE M DEB (TANK) 1.4 15:53:34 10° WSW 15:56:03 80° NNW 15:56:59 27° ENE
CZ-2D R/B 4.4 15:54:27 10° ESE 15:57:56 26° ENE 16:01:22 10° N
Cosmos 1461 4.3 15:55:08 10° WSW 15:58:36 30° NW 16:02:06 10° NNE
SKYMED 2 4.4 15:58:01 14° NE 16:01:07 30° E 16:04:57 10° SSE
CORIOLIS 4.4 15:56:15 10° S 16:01:34 75° WSW 16:06:56 10° NNW
Cosmos 1980 Rocket 2.3 15:57:14 10° S 16:02:43 56° ESE 16:07:35 13° NE
Cosmos 1844 Rocket 4.0 15:59:21 10° N 16:03:13 18° NE 16:04:08 18° NE
Cosmos 2219 3.5 15:58:05 10° NNW 16:03:35 45° ENE 16:09:05 10° SE
Okean 1 4.1 16:00:49 10° SE 16:03:43 23° E 16:04:06 23° E
Aureole 1 Rocket 3.5 16:01:49 10° S 16:06:11 54° ESE 16:11:23 12° NNE
SJ-6F 4.3 16:04:23 10° SSE 16:08:18 61° ENE 16:12:17 10° N
NOSS 3-2 (C) 4.1 16:05:36 10° WSW 16:10:31 44° NW 16:15:55 12° NNE
Cosmos 1953 Rocket 3.5 16:06:46 10° N 16:11:13 68° E 16:15:38 10° SSE
ARIANE 5 R/B 2.6 16:06:32 10° SSE 16:11:36 83° WSW 16:16:47 10° NNW
Cosmos 2263 Rocket 2.1 16:06:25 10° NNW 16:12:07 74° ENE 16:17:47 10° SSE
IRS-1C 4.2 16:07:04 10° SSE 16:12:23 84° WSW 16:17:44 10° NNW
PSLV R/B 4.3 16:13:45 26° ENE 16:13:45 26° ENE 16:17:10 10° N
Meteor 1-5 Rocket 4.1 16:11:10 10° N 16:16:34 89° W 16:22:05 10° S
Cosmos 1680 Rocket 4.3 16:14:21 10° N 16:18:51 28° ENE 16:20:04 26° E
Cosmos 1825 Rocket 4.1 16:14:48 10° NNW 16:19:04 58° W 16:23:16 10° S
Cosmos 2369 4.1 16:14:53 10° S 16:20:15 44° ESE 16:23:23 23° NE
Meteor 2-10 4.1 16:16:42 10° N 16:22:06 66° ENE 16:27:39 10° SSE
COSMO-SKYMED 1 3.1 16:22:48 32° E 16:23:19 33° E 16:27:02 10° SSE
SAR-Lupe-4 4.3 16:20:58 10° S 16:24:27 54° W 16:27:57 10° NNW
Cosmos 1076 Rocket 3.6 16:21:57 10° NNW 16:26:16 77° W 16:30:34 10° S
Cosmos 1655 Rocket 4.0 16:20:39 10° N 16:26:54 85° W 16:33:07 10° S
SOZ 4.2 16:24:43 10° W 16:26:59 43° NNW 16:26:59 43° NNW
USA 81 3.9 16:26:26 10° N 16:31:43 75° E 16:36:58 10° S
Cosmos 2227 Rocket 3.3 16:26:38 10° NW 16:32:01 47° WSW 16:37:23 10° S
Cosmos 44 Rocket 4.4 16:28:59 10° NNW 16:33:16 26° NE 16:33:16 26° NE
SPOT 1/Viking Rocket 3.4 16:30:15 10° SSE 16:35:26 80° ENE 16:40:40 10° NNW
Cosmos 1697 Rocket 3.9 16:37:14 10° WSW 16:42:25 37° NW 16:47:32 10° NNE
CENTAUR R/B 4.4 16:39:54 10° NW 16:44:54 21° N 16:48:31 15° NNE
Cosmos 2058 Rocket 3.1 16:41:20 10° S 16:45:48 82° W 16:49:15 17° N
NOSS 2-3 (C) 4.1 16:43:30 10° WSW 16:46:46 39° NW 16:47:48 31° N
Cosmos 2333 Rocket 3.9 16:45:46 10° SSE 16:47:30 17° SE 16:47:30 17° SE
Meteor 2-11 Rocket 4.4 16:45:01 10° N 16:51:06 58° ENE 16:57:08 10° SSE
Meteor 1-14 Rocket 4.4 16:51:13 10° N 16:56:29 46° ENE 16:56:29 46° ENE
MINOTAUR IV R/B 4.4 16:53:54 10° NNW 16:58:13 70° NE 16:58:13 70° NE
EXPRESS MD2 3.4 16:56:55 10° WSW 16:59:01 54° W 16:59:01 54° W
Lacrosse 5 rocket 3.4 16:57:48 10° NNW 16:58:51 14° NNW 16:58:51 14° NNW
Cosmos 2322 Rocket 4.4 16:57:07 10° SSE 16:57:11 10° SSE 16:57:11 10° SSE
Resurs 1-3 3.6 17:01:29 10° S 17:05:47 76° WSW 17:10:06 10° NNW
Cosmos-2242 3.8 17:04:57 10° SSW 17:09:03 49° WNW 17:11:23 23° NNW
Nadezhda 2 Rocket 4.5 17:04:31 10° N 17:10:39 79° W 17:16:44 10° S
USA 238 DEB 4.0 17:05:34 10° WSW 17:11:35 55° NW 17:14:48 30° NNE
USA 238 4.0 17:05:39 10° WSW 17:11:41 56° NW 17:14:54 30° NNE
Spot 4 Rocket 4.3 17:07:17 10° S 17:12:21 68° WSW 17:17:28 10° NNW
USA 215 3.9 17:12:07 34° NNE 17:13:13 37° N 17:19:06 10° NW
Cosmos 1898 Rocket 4.0 17:09:05 10° SW 17:14:08 55° WNW 17:16:31 30° N
Cosmos 1844 4.5 17:09:05 10° NNW 17:12:43 35° NNE 17:12:43 35° NNE
Cosmos 1553 Rocket 4.0 17:08:52 10° SSW 17:15:02 79° W 17:21:22 10° N
S3M 4.3 17:09:28 10° SSE 17:14:31 48° SE 17:14:31 48° SE
Gbstr 26 Del rocket 4.1 17:13:47 10° WNW 17:16:29 31° NW 17:16:29 31° NW
IRAS Rocket 4.3 17:13:03 10° SSE 17:18:32 77° WSW 17:24:01 10° NNW
Cosmos 2082 4.1 17:15:03 10° NNW 17:20:42 62° WSW 17:26:20 10° S
Cosmos 2112 Rocket 4.4 17:15:32 10° NNW 17:19:27 50° N 17:19:27 50° N
YAOGAN 1 3.5 17:20:28 10° S 17:24:33 46° W 17:28:41 10° NNW
Meteor 2-6 Rocket 4.2 17:22:14 10° S 17:27:56 85° W 17:29:21 54° N
Cosmos 923 Rocket 4.4 17:24:21 10° NNW 17:29:28 60° WSW 17:32:38 23° S
Cosmos 1937 Rocket 4.0 17:24:37 10° SW 17:29:41 55° WNW 17:30:51 45° NNW
Cosmos 2237 4.2 17:24:38 10° SSW 17:30:22 81° WNW 17:30:55 72° N
SL-16 R/B 2.8 17:25:36 10° S 17:29:26 42° S 17:29:26 42° S
Cosmos 1745 Rocket 3.8 17:26:27 10° N 17:32:39 84° E 17:38:46 10° S
SL-24 R/B - RUBIN 2 4.1 17:30:01 10° SW 17:34:52 67° WSW 17:34:52 67° WSW
COSMOS 2455 2.7 17:32:40 10° SSW 17:38:36 86° WSW 17:38:36 86° WSW
BREEZE-M DEB (TANK) 3.8 17:24:28 10° WNW 17:43:28 84° SSW 17:44:18 71° SE
Cosmos 1980 Rocket 3.9 17:42:14 10° WSW 17:47:02 28° NW 17:49:21 21° NNW
Cosmos 1844 Rocket 3.6 17:42:15 10° NNW 17:45:49 41° NNW 17:45:49 41° NNW
Cosmos 2333 Rocket 4.4 18:28:11 10° SW 18:29:34 18° SW 18:29:34 18° SW
